Regional Weather Roundup
Issued by NWS

Home | Current Version | Previous Version | Graphics & Text | Print | Product List | Glossary On
Versions: 1 2 3 4 5 6 7 8 9 10 11 12 13 14 15 16 17 18 19 20 21 22 23 24 25 26 27 28 29 30 31 32 33 34 35 36 37 38 39 40 41 42 43 44 45 46 47 48 49 50
000
ASUS45 KBOU 190907
RWRCO

WEATHER ROUNDUP FOR COLORADO
NATIONAL WEATHER SERVICE DENVER/BOULDER CO
300 AM MDT TUE AUG 19 2014

NOTE: "FAIR" INDICATES FEW OR NO CLOUDS BELOW 12000 FEET WITH NO
SIGNIFICANT WEATHER AND/OR OBSTRUCTIONS TO VISIBILITY.

COZ001>005-013-030-031-191000-
...NORTHWEST COLORADO...

CITY           SKY/WX    TMP DP  RH WIND       PRES   REMARKS
CRAIG          PTCLDY    60  41  49 E10       30.05R
HAYDEN         PTCLDY    55  37  50 E17G23    30.08S
MEEKER         MOCLDY    58  39  49 S8        30.08S
MOUNT WERNER   NOT AVBL
STEAMBOAT SPGS PTCLDY    55  39  55 E8        30.10F
WALDEN         PTCLDY    39  32  75 E9        30.21S
$$

COZ006>008-011-191000-
...WEST CENTRAL VALLEYS...

CITY           SKY/WX    TMP DP  RH WIND       PRES   REMARKS
GRAND JUNCTION CLOUDY    74  42  31 NW13      29.98R
MONTROSE       CLOUDY    74  43  32 CALM      30.09R
EAGLE          MOCLDY    52  39  62 E3        30.15S
RIFLE          MOCLDY    62  43  49 CALM      30.05R
DELTA          CLOUDY    71  47  42 CALM      30.05R
NUCLA          CLOUDY    72  45  37 CALM      30.13F
$$

COZ017>023-064>068-191000-
...SOUTHWEST COLORADO...

CITY           SKY/WX    TMP DP  RH WIND       PRES   REMARKS
DURANGO        CLOUDY    62  50  64 NW10      30.19S
CORTEZ         MOCLDY    65  53  65 E13       30.12F
PAGOSA SPRINGS CLOUDY    60  45  57 NE5       30.25F
TELLURIDE      DRIZZLE   57  45  62 CALM      30.33F
WOLF CREEK PAS NOT AVBL
$$

COZ009-010-012-014-032>034-037-058>063-191000-
...CENTRAL COLORADO...

CITY           SKY/WX    TMP DP  RH WIND       PRES   REMARKS
ASPEN          MOCLDY    59  38  45 S9        30.18F
BUENA VISTA    CLOUDY    53  38  56 NW6       30.24F
COPPER MTN     PTCLDY    54  30  40 S22       30.51F
BERTHOUD PASS  FAIR      45  43  93 SW12      30.55F
COTTONWOOD PAS CLOUDY    59  32  36 CALM      30.37S
GUNNISON       CLOUDY    55  37  50 CALM      30.25R
KREMMLING      PTCLDY    43  32  65 CALM      30.20F
LEADVILLE      MOCLDY    43  34  70 W3        30.36F
MONARCH PASS   CLOUDY    46  34  61 S16       30.61F
SALIDA         CLOUDY    62  42  47 CALM      30.27S
SUNLIGHT       CLOUDY    54  37  54 CALM      30.42S
WILKERSON PASS MOCLDY    46  32  57 SW7       30.49F
$$

COZ069>075-191000-
...SAN LUIS VALLEY/SANGRE DE CRISTO MOUNTAINS...

CITY           SKY/WX    TMP DP  RH WIND       PRES   REMARKS
ALAMOSA        CLOUDY    55  43  63 CALM      30.22F
LA VETA PASS   MOCLDY    52  37  58 S8        30.38F
SAGUACHE       CLOUDY    54  45  71 W6        30.25S
$$

COZ035-036-038>040-191000-
...NORTHERN COLORADO FRONT RANGE...

CITY           SKY/WX    TMP DP  RH WIND       PRES   REMARKS
DENVER INTL AP PTCLDY    61  47  59 S8        30.04F
DMNS CITY PARK   N/A     61  48  61 SW5       30.04S
AURORA         PTCLDY    58  48  67 SW6       30.06F
FRONT RANGE AP CLEAR     64  50  59 S5        30.05F
ERIE MUNI ARPT CLEAR     56  50  80 CALM      30.03S
BOULDER MUN AP CLEAR     63  46  55 CALM      30.03S
CENTENNIAL     CLEAR     57  46  66 SW6       30.07F
BROOMFIELD     CLEAR     63  50  63 CALM      30.06S
FORT COLLINS   CLEAR     61  48  63 SE3       30.03F
LONGMONT       CLEAR     59  50  72 CALM      30.03F
$$

COZ041-046-047-076>085-087-088-191000-
...PIKES PEAK/PALMER DIVIDE AND SOUTHERN FOOTHILLS...

CITY           SKY/WX    TMP DP  RH WIND       PRES   REMARKS
COLO. SPRINGS  MOCLDY    60  48  64 N7        30.12F
A. F. ACADEMY  PTCLDY    56  46  69 N6        30.13F
ELLICOTT       MOCLDY    63  49  60 CALM      30.10R
FALCON         MOCLDY    55  48  77 W6        30.17S
FORT CARSON    MOCLDY    61  46  59 N8        30.08F
LIMON          PTCLDY    55  51  86 NW7       30.04F
MONUMENT HILL  PTCLDY    52  45  76 S7        30.14F
TRINIDAD       PTCLDY    67  42  40 SW7       30.05F
$$

COZ042>045-048>051-090-091-191000-
...NORTHEAST COLORADO...

CITY           SKY/WX    TMP DP  RH WIND       PRES   REMARKS
GREELEY ARPT   CLEAR     55  46  71 NW5       30.02S
AKRON          PTCLDY    65  55  70 S12G24    29.99F
BURLINGTON     MOCLDY    65  57  75 SE12      29.96S
WRAY             N/A     63  55  73 E6        29.95S
STERLING       PTCLDY    63  57  82 CALM      29.97R
HOLYOKE        NOT AVBL
FORT MORGAN    PTCLDY    58  53  81 W6        30.00S
$$

COZ086-089-092>099-191000-
...SOUTHEAST COLORADO...

CITY           SKY/WX    TMP DP  RH WIND       PRES   REMARKS
PUEBLO         CLOUDY    69  47  45 N10       29.98F
LA JUNTA       MOCLDY    63  51  65 W10       29.91S
LAMAR          MOCLDY    71  49  45 E7        29.87S
SPRINGFIELD      N/A     72  47  40 SW14      29.96F
$$



USA.gov is the U.S. government's official web portal to all federal, state and local government web resources and services.